TimeCDT,TemperatureF,Dew PointF,Humidity,Sea Level PressureIn,VisibilityMPH,Wind Direction,Wind SpeedMPH,Gust SpeedMPH,PrecipitationIn,Events,Conditions,WindDirDegrees,DateUTC
12:13 AM,57.2,57.2,100,29.75,2.0,Calm,Calm,-,N/A,,Partly Cloudy,0,2011-10-13 05:13:00
12:15 AM,57.2,57.2,100,29.75,1.0,Calm,Calm,-,N/A,,Mist,0,2011-10-13 05:15:00
12:22 AM,55.4,55.4,100,29.75,0.2,West,3.5,-,N/A,Fog,Fog,270,2011-10-13 05:22:00
12:33 AM,57.2,57.2,100,29.74,1.0,Calm,Calm,-,N/A,,Mist,0,2011-10-13 05:33:00
12:36 AM,57.2,57.2,100,29.74,2.0,Calm,Calm,-,N/A,,Partly Cloudy,0,2011-10-13 05:36:00
12:53 AM,57.0,57.0,100,29.76,3.0,West,3.5,-,N/A,,Clear,260,2011-10-13 05:53:00
1:53 AM,57.9,57.9,100,29.74,5.0,Calm,Calm,-,N/A,,Clear,0,2011-10-13 06:53:00
2:48 AM,60.8,60.8,100,29.72,7.0,Calm,Calm,-,N/A,,Scattered Clouds,0,2011-10-13 07:48:00
2:53 AM,61.0,61.0,100,29.73,8.0,North,10.4,-,N/A,,Partly Cloudy,350,2011-10-13 07:53:00
3:40 AM,60.8,60.8,100,29.71,7.0,North,9.2,-,N/A,,Mostly Cloudy,10,2011-10-13 08:40:00
3:53 AM,61.0,60.1,97,29.73,9.0,NNE,4.6,-,N/A,,Mostly Cloudy,20,2011-10-13 08:53:00
4:12 AM,59.0,59.0,100,29.71,7.0,Calm,Calm,-,N/A,,Partly Cloudy,0,2011-10-13 09:12:00
4:46 AM,59.0,59.0,100,29.71,1.2,Calm,Calm,-,N/A,,Clear,0,2011-10-13 09:46:00
4:48 AM,57.2,57.2,100,29.71,0.8,Calm,Calm,-,N/A,,Mist,0,2011-10-13 09:48:00
4:53 AM,57.0,57.0,100,29.73,0.5,Calm,Calm,-,N/A,Fog,Fog,0,2011-10-13 09:53:00
5:02 AM,57.2,57.2,100,29.71,2.0,WNW,3.5,-,N/A,,Scattered Clouds,300,2011-10-13 10:02:00
5:05 AM,57.2,57.2,100,29.71,3.0,WNW,3.5,-,N/A,,Mostly Cloudy,300,2011-10-13 10:05:00
5:16 AM,57.2,57.2,100,29.71,2.0,WNW,4.6,-,N/A,,Scattered Clouds,300,2011-10-13 10:16:00
5:28 AM,57.2,57.2,100,29.71,5.0,West,4.6,-,N/A,,Partly Cloudy,270,2011-10-13 10:28:00
5:53 AM,57.9,57.9,100,29.73,4.0,West,3.5,-,N/A,,Clear,280,2011-10-13 10:53:00
6:53 AM,60.1,60.1,100,29.75,6.0,WNW,8.1,-,N/A,,Clear,300,2011-10-13 11:53:00
7:53 AM,61.0,60.1,97,29.76,6.0,WNW,11.5,-,0.01,,Clear,300,2011-10-13 12:53:00
8:49 AM,62.6,60.8,94,29.77,8.0,NNW,19.6,-,N/A,,Mostly Cloudy,330,2011-10-13 13:49:00
8:53 AM,62.6,60.8,94,29.77,8.0,NNW,21.9,27.6,N/A,,Mostly Cloudy,330,2011-10-13 13:53:00
9:53 AM,66.9,61.0,81,29.81,10.0,NNW,17.3,-,N/A,,Mostly Cloudy,340,2011-10-13 14:53:00
10:07 AM,66.2,60.8,83,29.80,10.0,NNW,17.3,-,N/A,,Scattered Clouds,340,2011-10-13 15:07:00
10:53 AM,70.0,60.1,71,29.82,10.0,NNW,16.1,-,N/A,,Partly Cloudy,330,2011-10-13 15:53:00
11:53 AM,73.9,59.0,59,29.82,10.0,NNW,20.7,-,N/A,,Scattered Clouds,330,2011-10-13 16:53:00
12:53 PM,75.0,55.0,50,29.82,10.0,NNW,21.9,28.8,N/A,,Clear,330,2011-10-13 17:53:00
1:53 PM,77.0,55.0,47,29.80,10.0,NW,16.1,26.5,N/A,,Scattered Clouds,320,2011-10-13 18:53:00
2:53 PM,79.0,52.0,39,29.78,10.0,NW,17.3,23.0,N/A,,Partly Cloudy,310,2011-10-13 19:53:00
3:53 PM,78.1,50.0,37,29.78,10.0,NW,17.3,21.9,N/A,,Partly Cloudy,320,2011-10-13 20:53:00
4:53 PM,77.0,48.9,37,29.79,10.0,NW,20.7,-,N/A,,Clear,320,2011-10-13 21:53:00
5:53 PM,75.0,46.9,37,29.80,10.0,NNW,17.3,-,N/A,,Clear,330,2011-10-13 22:53:00
6:53 PM,70.0,50.0,49,29.81,10.0,NNW,9.2,-,N/A,,Clear,330,2011-10-13 23:53:00
7:53 PM,66.0,50.0,56,29.82,10.0,NW,6.9,-,N/A,,Clear,320,2011-10-14 00:53:00
8:53 PM,62.1,50.0,65,29.85,10.0,WNW,6.9,-,N/A,,Clear,300,2011-10-14 01:53:00
9:53 PM,64.0,48.9,58,29.86,10.0,NW,9.2,-,N/A,,Clear,310,2011-10-14 02:53:00
10:53 PM,62.1,48.0,60,29.87,10.0,NW,9.2,-,N/A,,Clear,310,2011-10-14 03:53:00
11:53 PM,59.0,48.0,67,29.89,10.0,NNW,12.7,-,N/A,,Clear,330,2011-10-14 04:53:00